Estación Meteorológica Peña el Pijo (Robertgarden) [ 09/28/20 18:47:24 CEST ]

Fecha Hora Presion(HPa) Temp (°C) Humedad % Rocio (°C) Viento ( m/s) Direccion Lluvia 1Hora(mm) Lluvia 24H(mm) LLuvia Total(mm)
2020-Apr-22 01:08:40 1000.400 - - - - W     39.88
2020-Apr-22 02:09:03 1000.700 - - - - W     39.88
2020-Apr-22 03:09:35 1000.800 - - - - W     39.88
2020-Apr-22 04:09:30 1000.800 - - - - W     39.88
2020-Apr-22 05:09:17 1001.000 - - - - W     39.88
2020-Apr-22 06:09:14 1001.400 - - - - W     39.88
2020-Apr-22 07:10:16 1002.100 - - - - W     39.88
2020-Apr-22 08:10:10 1003.000 - - - - W     39.88
2020-Apr-22 09:09:48 1003.100 - - - - W     39.88
2020-Apr-22 10:09:57 1003.700 - - - - W     39.88
2020-Apr-22 11:08:52 1004.300 - - - - W     39.88
2020-Apr-22 12:08:46 1004.300 - - - - W     39.88
2020-Apr-22 13:09:27 1004.400 - - - - W     39.88
2020-Apr-22 14:08:58 1004.400 - - - - W     39.88
2020-Apr-22 15:08:58 1004.800 - - - - W     39.88
2020-Apr-22 16:09:09 1004.900 - - - - W     39.88
2020-Apr-22 17:09:18 1004.600 - - - - W     39.88
2020-Apr-22 18:09:10 1005.000 - - - - W     39.88
2020-Apr-22 19:09:01 1005.400 - - - - W     39.88
2020-Apr-22 20:09:17 1005.900 - - - - W     39.88
2020-Apr-22 21:09:06 1006.800 - - - - W     39.88
2020-Apr-22 22:08:57 1007.900 - - - - W     39.88
2020-Apr-22 23:08:49 1008.300 - - - - W     39.88

Temperatura Máxima:    Temperatura Mínima:
Presión Máxima:1008.300 Hpa    Presión Mínima:1000.400 Hpa


Volver